Retour au catalogue

BREEZE-M DEB

ActifHEO
NORAD 38566·DEBRIS·🇷🇺 Russia

Lancé Mar 14, 2008 depuis Baikonur Cosmodrome

Loading…

Prochains Passages (prochaines 24 heures)

TLE

FraisSource: Space-Track

Époque: Sep 14, 2026, 06:07 UTC

1 38566U 08011M   26257.25526100  .00003051  00000-0  15558-1 0  9995
2 38566  48.1204  79.3344 5437348 110.0257 314.6280  4.56945723 40114

Suivez BREEZE-M DEB en temps réel avec AllMySat

Download on the App Store